Tracking 30009 objects as of 7-Dec-2024
HD Live streaming from Space Station
objects crossing your sky now

COSMOS 2528

Track COSMOS 2528 now!
10-day predictions


NORAD ID: 43657
Int'l Code: 2018-082A
Perigee: 908.3 km
Apogee: 916.9 km
Inclination: 67.1 °
Period: 103.1 minutes
Semi major axis: 7283 km
RCS: Unknown
Launch date: October 25, 2018
Source: Commonwealth of Independent States (former USSR) (CIS)
Launch site: PLESETSK MISSILE AND SPACE COMPLEX (PKMTR)
Your satellite tracking list
Your tracking list is empty




NASA's NSSDC Master Catalog

Two Line Element Set (TLE):
1 43657U 18082A   24341.74663872  .00000024  00000-0  71363-4 0  9991
2 43657  67.1494 352.5616 0005905 288.2951  71.7491 13.96648109312103
Source of the keplerian elements: AFSPC